Wind_Gust
27 27 28 27 26 26 26 25 25 26 26 29 30 31 31 30 32 30 31 32 31 31 32 32 32 29 30 30 29 29 29 31 30 28 29 29 30 28 29 31 30 29 28 28 27 26 27 27 28 27 25 24 24 24 24 23 22 22 21 21 22 20 21 21 21 18 16 15 17 20 22 22 24 22 22 22 23 24 19 22 20 22 24 26 26
28 27 27 27 26 27 26 26 28 27 26 28 31 33 32 32 31 33 32 33 32 33 34 31 29 30 28 30 28 29 31 30 29 30 29 29 30 30 30 31 31 30 28 29 29 29 28 29 29 28 27 27 25 26 26 26 25 24 23 23 23 23 21 23 21 21 20 17 18 17 22 23 25 23 24 23 22 24 26 24 23 23 27 25 27
31 30 29 29 28 28 28 27 28 27 28 28 30 34 34 32 32 33 34 32 33 34 33 31 31 31 31 30 29 29 30 30 28 30 30 32 33 31 30 32 31 30 30 30 31 29 28 30 29 28 28 28 28 26 24 25 25 25 23 23 22 21 21 21 22 21 19 20 18 21 23 25 25 25 24 24 22 25 26 25 24 27 26 24 25
32 31 32 31 30 30 30 29 28 30 29 30 30 32 34 32 33 35 33 31 37 35 34 33 33 32 32 32 30 28 30 29 29 29 32 33 33 34 32 32 33 33 32 31 31 31 31 30 29 30 28 30 28 28 27 27 27 24 23 22 22 22 21 20 21 20 19 23 21 22 23 23 25 22 23 23 24 24 25 25 23 25 26 27 26
32 33 32 33 33 33 32 31 32 31 32 30 30 32 32 34 33 35 35 35 36 35 36 34 34 33 34 33 32 30 29 29 31 31 29 28 32 33 33 33 30 32 32 32 25 30 33 32 30 30 32 30 30 29 28 26 28 26 25 25 24 23 21 22 22 22 21 21 22 22 22 22 24 23 25 28 24 24 22 25 26 26 25 25 26
32 33 33 34 35 34 33 32 32 32 31 31 32 31 32 33 35 34 36 36 36 35 35 37 35 35 34 33 31 31 30 29 29 31 31 29 31 31 32 33 33 34 34 33 33 32 31 32 32 31 32 32 32 29 30 27 27 27 25 25 26 23 22 21 21 21 21 22 19 23 21 25 23 24 26 25 26 27 25 23 23 23 25 25 25
33 33 33 33 35 35 35 33 34 33 33 32 33 32 33 34 36 37 36 36 38 37 36 37 35 37 36 33 33 31 31 29 29 29 30 30 29 32 32 32 30 32 32 36 34 33 33 32 31 32 33 32 32 32 31 28 31 27 26 25 24 23 24 23 24 22 22 21 21 22 24 24 25 26 27 25 24 26 29 26 26 22 24 26 25
33 34 34 34 35 36 36 34 33 34 34 32 33 33 34 36 37 37 36 37 38 39 38 37 36 36 38 36 35 30 28 28 29 30 29 31 30 28 31 30 29 29 28 31 32 34 33 32 32 31 31 33 33 32 31 33 30 28 29 26 25 24 25 24 23 24 23 23 23 24 25 26 24 23 25 27 22 22 26 29 30 27 26 25 27
35 35 35 35 34 34 34 35 34 34 33 33 34 34 35 35 36 37 36 37 38 37 38 37 38 38 36 36 35 30 27 26 26 29 30 30 30 32 28 28 30 29 29 28 30 31 34 32 30 35 30 28 26 25 23 20 30 31 29 29 26 26 25 25 25 25 25 24 24 24 26 27 27 27 28 30 32 33 31 23 26 25 26 26 26
35 36 36 36 34 34 35 35 35 36 35 34 35 34 35 35 36 37 37 38 38 37 38 37 38 39 38 37 34 30 27 25 18 20 19 27 28 27 27 26 25 24 24 26 26 27 31 31 29 28 30 31 32 32 29 27 25 26 28 29 28 28 27 26 27 27 26 26 27 26 28 30 29 30 32 32 30 27 25 27 28 26 25 25 25
33 34 36 35 35 35 35 34 35 36 35 34 33 34 36 37 35 36 37 37 38 37 38 40 38 38 40 38 34 32 31 26 19 21 22 23 23 25 28 26 23 22 23 23 25 26 26 31 29 24 26 28 36 32 32 29 25 25 23 17 18 28 27 28 27 26 28 27 27 26 27 30 29 28 30 29 29 30 31 31 31 29 30 29 31
32 35 37 36 36 35 35 35 35 35 35 35 35 35 34 35 36 35 36 34 35 34 34 40 40 38 38 36 33 34 32 16 22 23 25 24 20 26 27 29 29 29 29 31 30 27 28 31 31 32 30 30 31 29 25 26 27 25 24 22 17 17 15 24 27 29 27 28 28 27 27 29 29 31 31 28 31 30 29 29 32 31 32 31 30
33 33 35 36 36 35 34 35 35 35 35 35 34 35 35 36 37 36 37 35 30 33 33 33 32 33 32 34 33 33 33 20 24 25 24 24 24 23 26 30 28 28 26 28 28 28 27 29 31 32 32 25 31 33 30 28 23 26 26 26 21 17 18 19 14 20 26 27 26 27 29 27 30 32 31 33 27 30 29 30 31 30 31 32 31
33 33 33 34 34 34 33 34 34 34 34 35 34 36 36 37 35 35 34 32 31 29 30 34 35 32 31 33 33 29 31 23 25 26 24 25 25 23 26 26 30 27 27 29 25 25 27 27 30 29 27 26 30 33 32 33 30 28 25 26 29 28 22 22 23 20 17 25 27 27 25 24 27 27 28 28 32 32 34 32 29 31 32 36 31
32 32 33 34 33 32 33 33 33 33 34 34 34 35 35 35 35 34 35 32 28 33 31 28 29 30 33 35 34 31 33 23 26 27 25 25 25 21 26 29 29 29 28 26 27 24 26 29 27 28 27 28 30 29 32 33 33 35 33 32 33 34 32 30 27 27 25 25 30 28 27 25 24 24 27 32 32 31 31 33 34 33 33 26 26
31 32 31 33 33 33 32 31 32 33 33 33 33 34 34 33 34 34 32 31 29 31 30 29 32 33 32 33 36 32 24 26 26 27 26 25 24 23 24 27 29 29 30 26 27 28 26 28 29 29 31 28 23 24 27 31 32 32 35 34 35 34 35 27 29 26 26 30 31 30 28 25 16 22 28 31 29 27 25 25 26 26 25 26 29
30 32 30 32 34 34 32 30 31 32 31 31 32 31 31 33 32 31 31 32 32 32 30 29 29 30 31 34 35 33 31 25 27 28 27 28 21 25 26 29 32 32 30 29 29 29 28 33 30 31 30 29 23 25 26 26 27 32 32 34 37 38 38 35 32 29 24 22 19 18 17 12 11 14 27 30 27 25 27 28 31 29 28 30 27
31 33 35 35 33 31 30 29 30 30 30 31 30 31 32 30 30 31 32 32 35 34 35 39 33 31 31 31 33 35 29 23 27 27 27 28 25 28 28 31 33 33 32 30 29 30 30 24 26 31 33 34 22 27 27 26 29 32 32 32 34 37 37 34 30 27 24 24 23 22 19 14 11 8 13 27 27 23 31 33 30 29 31 30 30
33 34 33 29 28 30 29 27 26 26 27 26 27 28 28 29 28 27 29 32 34 34 35 34 32 31 31 30 27 35 32 24 28 27 28 30 29 26 30 29 32 34 35 32 30 31 32 28 32 33 29 26 25 27 29 28 31 31 31 33 36 34 36 30 33 30 27 25 27 26 23 21 17 15 15 19 24 26 31 33 28 31 33 32 31
32 33 31 29 27 27 26 26 24 22 22 24 25 24 22 23 24 23 28 32 30 31 32 34 33 32 29 31 30 32 32 27 28 28 29 29 30 29 29 28 30 30 31 37 34 31 31 31 30 32 31 28 25 27 27 28 32 32 30 32 32 34 29 30 30 29 28 26 27 29 30 27 26 21 22 19 21 26 32 35 31 31 32 32 32
32 31 30 30 28 26 26 24 23 20 17 17 16 17 18 14 16 22 24 28 29 30 30 30 31 30 31 32 31 29 29 27 26 27 27 29 31 26 31 31 30 30 30 30 36 33 33 32 32 26 30 29 24 26 26 27 29 33 32 32 31 29 24 30 30 26 31 26 24 25 29 31 32 32 33 30 26 27 30 30 35 33 34 33 34
31 29 29 29 27 28 27 25 23 21 22 22 16 14 14 12 11 11 16 21 24 23 24 24 28 29 30 30 29 32 28 24 23 25 28 29 30 30 30 31 30 30 29 30 33 33 32 29 29 22 26 28 26 23 24 25 32 32 34 27 28 26 28 29 29 27 28 31 29 28 29 29 31 34 34 35 34 30 32 37 37 37 37 38 36
30 29 28 29 27 25 25 23 24 21 20 19 19 17 16 14 16 14 12 13 14 20 22 28 29 26 28 30 31 32 34 30 18 22 23 26 27 30 33 34 30 33 30 29 28 30 30 28 23 20 25 26 26 26 23 26 24 29 31 30 27 27 23 24 25 26 27 28 30 29 28 29 30 32 34 34 36 35 35 37 39 38 35 30 31
28 27 27 28 27 26 25 21 23 18 21 21 21 16 15 18 13 12 16 17 14 16 16 16 16 22 25 26 28 30 29 28 19 20 22 25 25 27 29 34 34 29 28 30 26 26 27 28 22 22 26 25 26 27 26 24 26 26 29 30 25 23 25 24 25 28 26 29 30 29 31 30 29 30 32 33 34 32 32 33 35 38 37 33 32
27 27 27 27 27 27 27 26 25 22 21 20 19 21 21 20 20 19 15 16 19 20 19 17 18 20 26 24 27 30 28 31 27 23 23 23 23 24 24 26 29 28 26 28 22 25 15 13 14 13 16 19 25 26 24 25 27 26 32 33 29 26 24 25 29 29 30 29 31 30 31 31 30 31 30 29 26 28 30 29 29 30 32 30 28
27 27 26 26 27 27 28 27 26 25 25 24 23 23 24 23 25 26 22 21 20 20 19 18 18 20 22 28 28 34 31 29 33 26 18 19 19 22 24 23 23 22 21 24 18 17 16 17 13 12 14 15 22 20 18 22 22 26 31 33 28 25 26 32 31 33 32 32 31 33 32 30 29 31 24 24 27 30 31 33 30 33 32 30 30
28 28 28 25 25 26 25 27 27 26 23 24 24 24 25 24 25 27 27 25 23 23 22 26 24 24 29 31 30 30 33 30 32 27 24 22 22 19 21 21 19 18 21 24 18 22 22 19 18 14 9 11 19 16 18 17 21 19 19 18 19 21 25 28 33 34 33 34 31 31 31 30 30 27 28 30 34 31 29 29 30 32 29 31 30
27 26 25 24 23 24 24 17 23 23 24 24 23 23 24 23 23 26 28 26 26 26 27 26 30 32 31 29 29 32 32 33 31 32 29 27 28 27 25 24 23 23 23 22 26 27 26 14 17 20 19 15 13 12 17 21 22 19 22 21 24 22 22 22 21 28 31 33 32 30 29 30 31 32 31 30 31 29 27 26 29 29 28 27 31
25 24 24 24 25 23 22 23 24 23 23 23 21 21 22 23 22 22 25 28 24 25 29 27 27 27 30 27 28 31 33 34 31 19 26 19 28 28 28 28 29 30 24 19 24 22 23 23 24 26 27 24 20 17 16 17 18 21 23 27 27 26 25 25 29 30 27 31 34 32 32 30 32 30 31 32 29 30 24 25 25 26 25 27 28
26 25 25 24 26 25 24 24 24 23 24 25 26 22 10 15 17 19 24 18 22 20 18 22 20 22 23 27 28 28 26 21 20 26 26 24 25 28 23 22 21 26 19 19 18 27 26 25 25 24 23 25 24 23 23 20 20 22 23 18 25 28 27 27 27 28 26 29 31 31 34 32 32 31 29 28 28 30 27 20 26 26 25 28 25
28 28 27 26 26 26 24 24 25 25 25 26 26 26 26 22 16 21 20 17 17 20 21 21 21 19 21 23 21 19 20 20 17 16 19 18 19 18 19 24 22 22 17 21 23 27 26 26 24 23 23 25 26 25 23 23 21 21 24 24 26 29 24 29 28 25 25 29 28 30 31 34 35 32 33 30 30 30 28 20 23 23 29 29 29
29 28 27 26 25 24 24 23 24 24 25 25 25 26 25 24 22 14 17 17 21 22 23 25 24 23 22 23 20 21 21 21 19 18 15 16 18 19 20 19 18 19 19 19 19 22 26 26 27 28 26 24 23 21 22 25 24 24 25 26 27 26 27 31 25 26 27 29 28 25 28 34 40 34 31 29 25 28 28 26 23 25 25 25 24
27 27 28 27 25 24 24 25 24 24 25 26 27 26 26 25 25 26 24 14 15 19 23 26 29 27 26 25 23 18 17 18 19 21 20 16 15 19 20 19 17 17 13 17 21 21 25 24 26 26 25 26 26 26 26 24 24 25 27 27 27 26 28 28 20 29 25 27 22 23 25 31 29 27 22 27 28 30 26 26 24 24 25 25 24
26 25 27 27 25 24 25 24 24 24 22 21 21 22 23 23 23 22 24 27 27 21 20 22 24 26 26 26 26 26 27 27 27 26 25 24 17 12 10 17 14 11 14 20 23 26 25 25 25 25 24 24 25 25 25 26 26 26 25 26 27 27 27 26 29 30 23 24 24 23 20 30 27 32 30 30 28 27 30 29 28 26 27 28 29
28 20 17 18 25 24 23 23 25 23 22 22 21 20 19 19 16 18 21 21 22 23 24 27 23 26 28 21 26 28 27 27 28 29 30 29 27 17 17 25 22 19 19 16 17 17 19 21 23 23 24 24 25 24 24 24 25 26 29 29 28 29 31 30 28 26 27 29 35 31 25 28 32 28 24 23 23 25 26 26 28 31 32 31 32
27 27 26 26 26 24 23 23 24 25 23 22 20 17 15 17 21 19 19 18 19 21 24 24 21 15 22 23 26 27 28 26 26 29 30 30 28 25 28 23 21 21 19 20 19 20 19 20 20 22 22 23 24 25 26 26 26 27 27 28 29 31 31 31 26 24 25 29 28 27 25 27 28 24 26 27 28 27 26 27 30 27 26 29 28
26 28 27 26 25 25 24 23 25 23 16 19 21 22 21 21 18 20 20 21 21 21 21 22 27 30 25 25 26 21 25 23 22 26 27 26 25 27 24 23 21 21 21 21 20 17 19 19 18 21 22 24 23 22 21 22 23 23 17 23 24 27 30 30 29 23 29 26 25 25 25 27 26 26 25 24 21 24 28 25 26 20 20 21 16
22 26 27 26 23 23 24 25 25 16 23 23 23 23 23 23 22 22 23 23 19 22 23 23 18 25 28 28 22 19 22 16 26 27 25 23 28 27 24 21 21 23 20 20 20 18 18 19 20 20 21 20 20 20 19 18 17 18 20 20 21 24 16 21 19 26 26 23 22 24 20 21 25 19 18 19 20 20 19 20 26 23 18 16 17
21 15 15 16 14 24 23 24 24 25 24 24 24 23 23 24 23 23 23 23 23 23 22 23 26 26 29 25 27 21 24 30 29 26 27 27 25 25 25 23 22 22 21 21 21 20 20 20 21 23 22 21 21 20 20 20 20 20 20 19 19 21 22 18 19 20 20 20 21 21 19 20 22 22 15 13 15 16 18 19 19 22 18 15 19
23 23 18 14 20 22 22 22 23 24 23 24 24 23 24 24 24 23 23 23 24 23 24 24 26 26 25 24 22 23 26 23 22 21 21 23 23 22 24 26 25 24 25 24 23 22 21 20 20 21 21 22 24 25 21 20 20 19 18 18 18 19 20 18 18 18 19 18 16 17 17 18 18 16 14 15 15 15 17 17 17 16 17 15 16
24 22 16 16 16 22 20 22 22 24 23 23 23 23 23 22 23 22 24 24 24 23 23 23 24 25 26 27 23 20 22 23 21 20 20 22 22 22 23 24 21 22 24 25 24 22 21 21 22 20 19 19 19 20 20 19 19 19 19 19 19 16 19 21 20 19 20 19 19 18 18 19 19 18 18 17 11 13 16 17 16 15 16 15 16
24 24 23 23 22 23 22 21 21 22 20 21 23 23 22 22 22 22 23 23 23 24 24 23 23 23 23 24 22 19 23 23 23 21 23 23 22 22 22 22 22 22 24 24 22 20 23 24 23 21 22 21 22 19 20 20 22 22 21 21 20 19 18 19 19 21 20 18 17 17 17 17 17 17 16 10 14 17 15 15 17 14 14 16 16
21 22 22 21 21 22 22 21 21 21 21 22 21 14 19 21 21 21 22 22 23 23 24 24 23 23 22 15 19 16 25 25 17 25 26 26 25 22 22 22 22 22 22 21 21 21 21 22 23 23 23 22 23 22 22 19 19 20 19 20 20 21 20 19 20 20 19 19 19 18 17 16 17 16 16 15 14 14 14 15 14 15 15 16 16
18 19 20 20 20 20 19 20 21 20 20 18 18 20 20 21 22 21 22 22 22 23 24 23 23 24 24 25 23 24 25 25 25 25 25 26 27 25 23 20 19 22 23 22 21 20 20 22 22 24 24 22 24 24 23 20 19 19 20 20 20 19 20 20 20 21 21 21 20 20 19 17 16 17 17 14 14 16 16 15 16 16 16 17 17
17 18 18 19 20 19 20 19 19 20 20 19 21 21 20 21 22 22 22 21 21 21 22 22 23 23 24 25 26 26 25 25 23 23 24 25 25 25 26 24 23 23 24 23 23 22 21 22 21 22 24 25 25 25 25 24 23 23 23 23 20 20 21 22 23 23 23 20 21 17 16 16 16 17 18 17 16 15 17 15 17 13 17 18 17
17 17 16 17 17 17 18 20 17 19 20 20 20 21 21 21 21 21 22 21 21 21 22 22 22 23 23 24 24 24 25 25 24 24 22 22 22 23 23 23 23 23 22 21 21 23 24 22 22 22 23 23 24 24 23 22 22 22 22 22 23 23 23 24 23 22 21 19 18 18 18 16 15 16 14 16 16 16 16 15 14 16 19 18 19
15 15 15 15 16 16 16 16 17 19 19 19 19 19 20 20 20 19 19 21 21 20 21 22 22 23 23 23 24 24 24 24 24 23 23 22 21 22 22 21 21 21 22 22 21 21 21 22 21 21 21 23 23 22 23 22 23 23 21 22 22 25 25 27 26 23 22 23 22 19 18 16 15 15 14 16 15 16 14 16 15 16 17 18 18
14 15 15 14 15 16 16 16 16 12 16 16 16 17 17 18 19 19 20 20 21 21 21 21 22 22 21 22 22 22 22 22 21 21 22 22 21 21 21 21 21 21 20 21 21 22 21 21 21 21 21 21 21 22 23 23 23 24 24 24 25 30 30 24 25 22 23 24 22 20 17 17 16 16 15 15 15 16 16 16 15 16 16 17 17
14 14 15 15 14 16 15 16 15 16 16 16 16 15 16 17 17 18 18 19 20 19 20 20 21 21 21 22 22 21 21 19 20 21 21 21 21 21 21 21 20 21 21 21 20 20 20 21 20 21 22 22 22 23 23 23 25 25 25 26 30 29 28 27 23 24 23 25 21 20 19 19 19 15 15 15 15 15 16 15 14 16 17 16 16
14 14 14 15 15 15 14 14 15 16 15 15 16 15 15 15 15 16 17 17 18 19 19 19 19 19 19 20 21 21 21 20 20 20 20 20 20 21 21 22 22 21 22 22 22 22 21 20 21 21 20 21 23 24 23 23 24 27 27 31 27 30 30 29 26 25 26 20 21 18 18 18 19 19 17 17 15 14 15 16 15 16 18 17 16
14 14 14 14 14 15 15 15 15 15 15 14 15 15 14 14 14 14 15 15 16 17 17 18 18 18 18 18 17 19 20 20 20 20 20 20 20 20 20 21 22 22 22 22 22 23 23 23 22 22 21 20 23 25 24 23 24 28 26 25 29 33 32 31 31 26 29 23 19 16 15 14 13 15 14 16 16 15 14 15 14 15 16 17 16
Wind_Speed
10 9 8 8 9 11 10 9 10 9 9 9 10 9 9 9 10 9 10 10 10 10 10 10 12 11 14 13 13 13 13 12 11 11 10 10 9 9 10 11 11 9 8 9 10 9 10 10 10 9 7 8 6 6 7 7 5 6 6 5 6 5 5 5 5 3 3 5 7 6 10 12 9 10 10 9 10 11 11 11 10 12 11 11 12
9 10 10 8 9 10 12 11 10 8 9 9 10 10 10 10 9 10 11 12 10 11 11 11 12 10 13 14 13 13 13 13 12 10 11 12 11 9 10 11 11 11 9 10 10 9 8 10 11 10 10 10 8 7 7 8 7 7 7 7 6 6 5 6 6 4 5 4 7 4 8 12 10 9 11 11 12 11 11 9 7 11 11 10 11
10 10 9 10 10 9 9 10 10 12 11 9 10 10 10 10 11 11 11 10 11 11 10 11 12 11 12 13 14 14 14 13 11 11 11 13 13 11 11 11 11 10 11 11 11 9 10 10 10 9 8 10 9 8 7 8 8 9 9 7 8 7 6 7 5 6 7 5 8 7 8 10 10 11 9 10 11 12 11 9 9 8 9 10 10
10 10 10 10 11 11 10 9 11 11 12 10 10 10 10 10 10 12 12 10 12 11 11 12 12 12 13 12 14 14 14 13 12 12 13 13 13 13 13 12 11 11 10 11 11 10 11 11 10 10 10 11 10 9 8 7 9 9 9 8 8 9 7 7 8 6 5 7 7 8 8 10 7 10 8 9 11 11 10 7 8 9 9 9 10
11 11 10 11 11 10 11 11 11 12 12 11 13 11 10 10 10 12 12 12 12 12 11 12 13 11 10 11 13 13 13 13 13 12 12 12 13 13 13 13 12 12 12 11 11 11 11 12 11 11 10 10 10 10 9 9 9 9 9 8 9 8 6 7 9 7 6 9 7 6 8 7 8 9 10 10 9 9 10 9 9 10 9 9 8
12 12 11 11 11 12 12 11 12 12 12 12 13 13 12 11 11 11 12 14 13 12 13 11 12 14 12 12 11 13 13 13 14 13 14 13 12 12 12 12 12 12 11 10 10 9 10 11 11 11 11 10 10 10 10 11 9 8 9 9 8 7 8 6 8 9 6 8 9 7 7 9 8 8 11 10 11 10 10 10 8 9 9 9 10
12 11 12 12 13 12 12 12 12 12 12 11 11 12 12 12 12 13 12 13 14 13 13 14 12 12 14 13 11 14 13 13 13 13 13 14 13 13 12 12 12 11 12 12 12 10 8 9 9 11 11 11 11 11 10 10 9 9 9 9 8 8 8 8 8 9 9 6 8 9 9 8 10 9 10 10 11 10 11 10 9 9 9 10 9
12 12 12 13 13 14 13 13 13 13 12 12 13 13 12 12 12 12 13 14 14 15 14 14 14 12 12 13 13 13 14 13 12 12 12 13 12 12 12 11 12 12 12 13 12 11 10 9 7 7 10 12 12 10 11 11 9 9 9 8 8 9 8 8 7 8 9 8 7 9 8 9 7 6 8 9 9 9 9 10 11 10 10 9 10
11 12 12 13 13 14 14 13 12 12 14 14 14 13 13 13 12 12 13 13 13 14 14 14 14 15 13 12 13 13 12 11 10 11 11 13 12 12 12 12 12 12 12 12 11 7 4 5 5 4 4 4 5 5 6 4 5 9 10 8 7 8 8 8 8 8 7 9 7 6 8 9 9 9 10 12 14 13 10 9 8 8 8 8 8
11 12 13 14 13 14 14 13 14 15 14 15 15 14 13 14 13 13 13 14 14 14 15 15 14 14 14 14 12 11 11 9 12 16 14 10 12 11 11 11 11 11 11 11 12 12 11 8 7 10 10 11 12 12 13 13 12 8 7 10 9 9 9 9 9 9 9 9 10 9 10 11 12 12 12 12 9 8 9 9 9 9 9 9 8
11 12 14 14 14 15 14 14 14 16 15 15 15 15 15 13 13 14 13 13 14 14 14 15 15 14 13 12 12 10 9 7 12 14 16 17 14 13 12 11 10 11 11 12 13 13 12 10 9 10 12 12 13 16 15 13 12 11 11 11 11 11 10 11 10 10 10 10 9 10 10 11 13 12 12 11 11 12 11 11 9 8 11 11 11
13 14 15 14 14 14 14 14 14 15 15 16 16 15 14 14 14 13 13 13 13 12 14 14 14 14 8 9 12 11 10 7 7 10 14 17 16 13 12 10 10 10 10 12 12 12 13 12 11 10 10 12 11 11 13 13 12 12 10 10 11 10 9 10 11 10 10 10 10 11 11 12 12 11 11 11 12 11 11 11 12 11 11 12 11
15 15 15 15 15 14 15 15 15 14 15 16 16 15 15 15 15 14 15 13 11 13 14 14 14 14 13 12 12 12 11 14 11 3 11 16 18 16 10 11 11 10 10 11 12 13 13 12 12 10 10 15 12 11 9 10 13 14 12 10 3 6 15 14 7 8 10 10 11 10 12 11 12 13 13 13 11 13 12 12 12 11 11 12 12
14 15 15 15 15 15 16 17 17 16 13 14 14 15 14 15 14 13 12 12 12 13 14 14 14 15 11 9 9 6 5 6 7 4 5 11 18 16 10 11 10 11 11 11 11 12 13 14 12 11 10 10 9 10 9 10 9 9 9 8 8 10 12 14 18 12 8 7 7 10 11 10 11 12 13 12 14 14 14 14 12 12 12 15 11
15 14 14 14 15 16 17 18 18 17 12 10 12 13 14 13 13 13 12 12 12 13 14 15 13 11 9 9 9 9 7 8 8 10 10 10 14 14 9 9 9 9 10 10 11 11 12 13 14 13 11 11 10 12 11 11 11 10 10 10 9 8 5 8 12 15 14 10 10 9 8 9 10 9 12 14 17 15 15 15 15 15 12 6 5
15 14 15 15 16 17 17 17 16 14 12 9 10 12 13 14 13 12 11 11 11 11 13 11 12 10 7 7 8 10 9 15 15 14 14 14 19 13 11 9 9 9 10 11 11 10 11 12 12 13 12 11 13 19 17 13 12 11 11 11 11 11 12 15 21 21 17 11 11 11 9 5 8 6 13 15 14 13 10 8 7 8 8 9 11
15 15 15 15 17 17 18 17 15 12 9 9 9 10 10 11 11 10 11 12 12 10 5 5 7 8 9 9 11 11 8 12 16 17 16 17 11 10 12 10 10 10 10 11 11 11 10 12 12 12 12 12 14 18 19 16 12 13 12 12 11 12 13 15 23 26 22 19 16 15 12 7 4 10 15 23 17 15 11 11 12 12 11 12 11
16 16 16 17 16 15 17 16 12 12 9 9 10 9 8 7 3 1 1 5 5 5 6 8 9 9 10 11 12 10 10 13 18 16 16 17 15 13 11 10 11 11 11 11 10 10 12 16 14 13 13 12 15 18 19 18 14 14 14 14 13 13 13 12 11 15 21 20 20 18 16 13 11 1 7 15 22 18 15 16 15 12 14 13 13
16 16 17 17 14 14 14 15 14 11 9 7 8 11 8 7 5 5 6 6 6 5 3 3 6 8 8 8 14 13 9 5 5 5 8 11 13 11 12 11 11 11 11 10 10 9 9 11 17 16 14 14 17 19 20 17 14 14 15 15 15 16 15 14 15 14 13 14 15 15 13 12 11 7 5 16 16 19 17 16 12 14 15 14 13
16 15 15 15 14 13 13 15 14 10 10 12 10 9 6 3 6 7 5 5 6 6 6 7 8 5 3 7 4 2 4 4 7 11 6 3 10 11 9 9 10 12 11 10 9 8 9 8 10 17 18 16 16 19 21 21 16 14 12 13 15 17 14 13 15 15 15 15 14 14 14 14 13 8 9 9 10 13 15 14 14 15 15 14 14
15 15 14 14 14 14 13 13 14 11 8 8 8 8 10 8 4 5 6 6 6 6 7 7 8 8 8 8 9 7 6 4 6 12 12 12 13 10 9 13 11 10 10 10 10 8 8 9 8 11 15 14 13 17 20 22 21 16 15 15 16 17 14 13 16 17 13 12 11 9 8 9 12 11 9 12 12 13 13 13 13 14 15 14 14
14 15 15 14 14 14 14 13 13 11 10 9 8 7 8 7 4 5 5 5 5 5 5 5 5 5 5 7 9 10 10 11 7 10 13 16 15 15 9 10 12 12 10 9 10 9 9 8 8 11 16 15 14 15 18 19 22 16 16 19 19 18 15 13 11 11 10 9 9 9 8 7 7 9 11 11 11 13 15 14 13 14 15 14 15
14 14 14 15 13 13 13 14 14 11 11 11 10 8 9 7 8 8 8 6 5 4 4 4 3 2 2 3 5 7 9 9 13 10 15 15 15 17 17 13 17 12 10 14 9 8 6 6 7 13 17 19 18 17 17 20 14 15 20 17 17 19 16 11 11 11 11 12 11 11 10 10 10 9 8 10 12 13 15 16 16 15 14 13 14
14 14 14 14 15 14 14 12 13 10 12 12 11 10 8 11 7 5 7 8 6 1 4 3 4 4 4 4 5 6 6 5 9 14 12 15 13 15 17 18 17 12 10 11 12 8 7 5 1 2 15 19 20 19 19 19 15 21 21 18 16 14 10 11 10 10 10 11 10 9 9 9 9 9 9 11 13 15 16 16 17 17 15 12 12
14 13 13 13 14 14 15 13 14 12 12 11 11 11 12 12 11 11 9 9 7 7 7 5 3 3 2 3 5 4 3 6 7 10 13 13 15 15 15 15 16 19 13 9 12 6 3 2 3 4 2 10 16 19 17 19 21 21 22 22 17 10 11 11 11 9 9 10 10 9 9 9 10 10 8 8 11 13 15 14 15 15 15 14 14
13 13 13 12 13 14 14 15 15 13 13 11 11 11 11 12 11 9 10 10 10 10 9 9 8 7 4 4 4 5 4 4 6 7 7 6 6 7 7 7 10 12 9 8 9 9 6 6 6 5 4 8 7 5 7 10 13 14 15 14 8 10 10 10 9 8 8 8 8 10 9 8 7 6 4 3 7 10 12 13 13 13 14 14 14
10 11 13 12 12 12 13 12 13 13 13 11 9 10 10 10 11 12 11 11 12 11 11 12 11 11 10 10 8 6 5 5 6 5 3 4 4 4 4 6 7 6 6 7 9 10 4 4 4 7 6 7 7 9 10 11 9 9 11 8 6 5 6 6 7 8 9 10 9 8 7 6 4 5 7 9 12 13 13 15 15 15 14 13 13
9 11 14 11 10 12 10 12 12 11 12 11 10 9 10 9 9 11 10 11 10 10 10 10 10 9 9 9 10 9 5 6 3 2 2 3 4 5 5 5 6 6 7 9 12 10 7 8 8 6 4 3 4 4 5 4 6 7 7 7 9 11 10 10 11 11 10 6 5 6 8 7 7 8 8 9 10 11 13 9 8 9 8 8 9
9 10 9 7 8 9 9 10 10 10 10 10 9 8 8 9 9 8 10 8 8 8 8 8 8 9 7 8 9 9 8 2 2 6 8 7 2 2 5 5 5 6 9 9 6 2 1 1 4 7 8 8 6 6 6 6 6 6 6 6 7 7 8 9 10 12 13 13 11 8 10 7 8 7 7 8 9 10 2 4 5 5 3 3 9
11 10 9 8 5 7 7 8 9 9 10 10 10 6 7 13 11 8 8 10 11 10 9 7 7 8 8 7 7 7 8 10 15 11 9 7 6 4 6 8 8 9 8 11 9 6 6 5 5 5 8 9 10 9 7 6 5 5 6 6 7 7 7 9 11 11 11 11 9 7 8 9 10 10 9 8 5 7 7 4 3 3 2 2 6
9 9 10 9 7 6 7 7 7 9 9 9 9 9 7 5 11 13 9 8 10 13 13 14 14 12 10 9 9 8 11 13 13 9 7 6 7 7 5 4 7 4 3 6 4 5 5 6 7 7 8 9 11 9 7 7 6 6 7 6 7 7 7 8 10 10 10 9 10 9 9 11 12 9 9 7 9 12 11 7 6 7 9 10 8
8 9 9 10 8 6 6 7 7 7 8 8 8 8 8 8 6 6 7 7 9 12 15 18 18 17 17 15 11 9 15 17 16 11 10 8 7 7 7 5 1 4 8 10 4 4 6 6 7 8 8 9 12 9 8 7 6 7 7 7 7 6 8 8 8 8 9 9 9 7 8 9 10 10 10 10 11 13 12 12 11 10 8 7 8
9 9 9 8 7 7 6 6 6 6 7 7 7 7 7 8 9 9 6 2 4 11 15 16 18 18 18 17 18 15 14 15 16 16 15 13 9 7 6 7 7 9 7 3 2 3 4 6 7 9 10 10 9 7 7 7 6 6 6 7 7 7 7 8 6 9 9 9 9 9 9 11 12 13 9 9 11 12 12 13 12 10 9 8 7
8 7 7 8 8 7 7 7 7 6 5 5 4 6 4 5 6 6 8 9 9 8 12 15 16 17 16 17 18 19 18 17 18 19 19 18 14 10 8 8 10 9 6 0 3 4 3 5 5 4 7 10 11 9 6 4 5 5 6 7 8 7 7 7 8 9 9 9 10 10 9 9 9 11 11 11 11 11 11 11 11 9 9 10 11
8 7 10 9 7 8 8 8 8 7 7 5 4 6 6 5 5 5 6 8 9 9 8 10 13 15 13 13 16 17 17 16 17 18 21 21 18 15 16 13 11 10 10 8 8 8 8 6 6 4 5 6 7 7 7 8 7 7 7 7 7 7 7 7 8 9 9 9 10 11 11 11 11 10 10 10 8 10 11 12 11 11 10 9 12
8 8 9 9 8 8 8 9 8 8 8 7 6 6 7 5 5 6 5 6 7 7 6 8 8 9 13 14 16 16 17 17 17 20 21 22 19 18 14 10 11 10 9 10 9 9 9 9 9 9 8 8 9 9 8 7 7 6 6 6 6 7 8 6 6 6 7 9 10 11 10 10 11 10 10 11 12 11 10 10 10 10 10 10 9
7 8 9 8 7 7 7 7 8 7 7 7 8 8 7 7 7 7 7 7 7 7 7 8 10 11 12 11 15 14 17 14 15 19 20 20 20 16 11 9 8 9 10 10 9 9 10 10 9 9 9 8 9 9 9 8 8 7 7 7 7 7 6 6 6 5 7 7 8 8 8 9 10 10 11 10 9 11 11 11 9 6 7 9 10
5 8 8 9 7 5 5 6 7 6 7 7 8 8 7 7 8 8 8 8 8 8 9 9 9 11 13 13 14 9 12 14 20 20 19 18 15 13 11 10 9 9 8 8 8 8 8 8 9 9 8 8 8 8 8 9 8 8 8 8 8 7 9 6 5 8 7 7 7 7 6 8 10 10 7 7 8 8 9 10 12 10 9 10 9
3 9 12 12 10 7 7 6 6 7 6 7 8 8 8 8 8 8 8 8 8 8 8 8 9 9 11 10 10 10 13 14 14 12 12 12 12 11 10 10 9 9 9 8 8 8 8 9 8 8 8 7 8 8 8 8 9 9 9 8 8 7 8 8 8 8 7 7 7 7 5 6 7 8 7 6 6 5 8 7 6 7 5 4 6
10 7 5 6 7 7 6 8 7 8 7 7 7 7 7 8 8 8 8 9 9 8 8 7 8 8 9 11 10 9 11 10 10 9 10 11 11 11 11 10 10 10 9 9 9 8 7 7 8 8 8 8 7 6 7 7 7 7 7 8 8 8 8 7 7 7 6 6 6 6 6 7 6 6 6 6 6 6 5 4 5 5 7 8 6
7 7 8 3 4 6 5 8 8 6 7 6 6 7 7 6 7 7 7 8 7 7 7 8 7 5 6 10 12 11 10 10 9 9 8 8 8 9 9 9 9 9 9 9 9 8 8 8 8 8 8 8 7 6 6 7 7 7 8 8 8 7 7 7 8 7 7 7 6 6 6 6 6 6 7 7 7 6 5 5 4 4 4 4 4
7 7 6 7 7 6 6 4 6 7 6 8 7 6 6 6 6 6 7 7 7 7 6 7 7 5 7 15 12 12 9 8 8 9 8 8 8 8 8 8 8 8 8 8 8 8 8 8 8 8 8 8 8 8 8 8 9 8 9 8 9 9 8 8 8 8 7 7 7 7 7 6 6 6 6 6 6 6 6 6 5 5 4 4 4
7 6 7 5 6 6 5 5 6 6 6 5 6 6 6 5 6 6 6 6 7 6 6 7 7 7 6 10 11 9 8 8 7 8 8 8 8 7 7 7 7 7 8 8 8 8 8 7 8 7 7 7 8 9 10 9 9 8 8 8 9 9 10 9 9 9 7 7 7 7 7 6 6 6 6 6 6 6 6 6 6 5 5 5 4
7 4 5 5 5 6 5 6 5 4 6 6 2 3 5 5 5 6 6 6 7 7 7 7 7 7 7 8 8 8 6 7 8 8 8 7 7 7 7 6 5 6 7 7 7 7 8 8 8 8 7 6 7 7 7 8 8 7 7 8 8 10 10 10 10 10 9 9 8 7 7 6 6 5 5 5 5 6 6 7 7 6 5 5 4
4 4 5 5 4 5 6 5 5 5 7 6 5 5 5 6 5 6 6 6 6 7 5 6 6 6 7 8 8 8 8 7 6 6 7 7 6 7 7 7 5 5 5 6 5 6 7 7 8 8 8 7 7 7 7 7 7 7 7 8 8 10 10 10 10 10 10 9 8 9 8 7 7 7 7 7 6 6 6 6 6 7 7 6 5
5 4 5 4 5 5 5 5 5 5 5 4 4 5 5 5 5 5 4 5 5 5 6 6 5 6 6 6 6 6 7 7 6 6 5 5 6 6 5 5 5 5 5 4 4 4 5 6 6 6 7 8 8 8 8 8 7 7 7 7 7 8 8 9 10 9 9 9 9 8 8 7 7 6 6 5 5 5 5 6 6 7 7 8 7
6 4 4 5 5 4 4 5 4 5 6 4 4 5 4 4 5 4 4 4 5 5 5 4 4 4 5 5 5 6 5 5 5 5 5 5 5 5 5 5 5 4 4 4 4 4 4 5 4 5 6 7 7 7 7 7 7 7 7 7 8 10 10 10 10 9 9 9 9 7 7 7 7 6 6 6 5 6 6 6 6 6 7 7 8
5 5 4 4 4 5 5 5 4 4 5 5 5 5 4 4 4 4 4 4 4 4 5 5 4 3 3 3 4 5 5 5 4 4 4 4 4 4 4 4 4 4 3 3 3 3 4 4 4 4 5 6 7 7 7 7 7 7 7 8 9 11 15 15 10 9 8 8 8 8 7 7 6 5 5 5 5 5 5 6 6 6 6 6 6
6 5 4 4 4 5 5 5 5 5 4 4 4 4 5 4 4 3 3 3 4 4 4 5 4 3 2 3 3 4 4 4 5 5 4 4 5 4 4 4 4 5 4 3 3 3 3 3 3 3 4 4 5 7 7 8 8 8 9 9 13 22 21 20 12 10 13 10 8 7 7 7 7 6 6 6 6 5 5 5 5 6 6 6 6
6 5 5 4 5 5 3 3 5 4 4 4 4 4 4 4 4 3 3 3 3 3 3 4 4 3 3 3 3 3 4 4 4 5 5 4 5 5 5 5 5 5 5 5 5 4 3 3 4 3 4 5 6 7 7 7 8 9 9 11 19 22 22 22 20 20 15 8 10 7 7 6 7 7 7 7 8 8 7 6 6 5 5 6 6
6 6 5 5 5 5 5 5 4 4 4 4 3 4 4 4 3 3 3 3 3 3 2 3 4 3 3 3 3 3 3 3 3 4 4 4 4 5 5 5 5 5 5 5 5 5 5 4 4 5 4 5 6 6 7 7 8 10 13 17 20 23 23 21 15 18 22 15 8 7 5 6 6 6 6 7 7 7 8 8 7 7 6 5 5
Wind_Direction
297 292 288 282 292 294 287 263 255 251 247 257 273 271 261 255 256 257 261 249 243 236 230 231 232 192 187 190 194 199 204 204 204 204 209 211 213 209 210 213 219 216 210 206 202 199 200 204 205 205 197 203 200 189 190 193 190 198 208 210 218 219 205 207 209 174 196 158 168 190 156 149 166 167 156 148 170 183 184 186 173 170 178 188 191
304 303 301 294 289 294 297 303 291 264 252 249 249 260 270 271 264 257 254 258 251 246 239 225 223 200 192 189 194 196 197 203 202 201 204 210 210 210 209 211 216 218 214 216 205 201 199 203 205 203 200 206 205 202 194 191 193 199 202 209 216 222 205 195 208 165 178 154 169 178 149 157 162 170 163 159 172 182 190 188 169 171 177 181 188
301 297 294 299 292 280 284 287 292 292 272 248 249 253 256 261 268 265 259 254 252 246 236 235 228 230 217 200 199 198 197 201 203 198 201 204 208 209 210 210 214 216 214 214 213 203 204 204 205 199 195 203 205 210 202 195 196 201 203 204 215 219 211 198 185 196 173 187 171 171 158 164 166 173 171 163 170 178 190 189 173 178 180 181 184
305 302 299 290 290 292 283 276 278 281 286 285 262 247 252 256 256 263 264 257 250 246 241 240 234 219 227 221 207 199 197 200 196 196 200 205 207 209 209 209 212 217 220 216 214 209 206 207 206 200 193 198 202 205 208 201 197 199 204 204 213 218 214 198 198 188 177 172 187 175 165 164 170 167 165 158 168 180 193 185 170 184 184 185 185
312 306 299 296 293 288 283 279 272 270 270 271 274 265 253 253 255 256 260 260 252 248 242 237 239 223 226 225 233 219 206 200 197 198 202 205 208 210 208 206 208 212 216 219 217 212 208 208 207 204 199 198 199 202 203 207 199 199 202 207 208 216 219 200 200 192 183 179 179 183 160 168 168 165 168 159 170 182 192 198 175 185 189 193 190
315 310 307 304 301 296 293 286 280 274 269 268 269 270 259 249 254 256 253 258 259 249 245 238 231 236 219 223 212 237 220 203 204 200 200 202 204 208 209 207 205 206 210 216 225 221 217 211 206 204 208 207 203 199 200 204 202 200 205 208 208 211 221 211 198 202 202 180 174 174 163 168 172 174 178 168 169 179 190 198 184 182 187 191 202
310 308 305 301 298 291 288 285 281 279 273 270 265 260 262 257 249 254 256 254 255 257 247 242 241 233 231 223 213 226 231 217 202 199 197 198 201 204 208 208 207 207 211 214 220 232 235 228 215 206 207 211 211 203 199 202 204 209 209 206 209 211 215 218 203 201 204 188 181 175 167 179 176 173 181 175 175 183 183 190 194 186 193 191 195
308 306 305 301 294 292 286 284 281 276 273 267 262 261 258 256 246 244 252 255 254 253 252 245 240 239 231 225 218 220 222 220 209 203 198 194 195 202 204 204 207 210 210 212 215 226 235 240 237 219 211 210 211 209 197 199 201 210 209 212 211 215 217 215 214 202 200 206 181 179 172 173 183 172 168 175 177 191 192 188 193 189 193 197 198
304 300 298 293 290 289 288 284 281 277 273 271 265 262 261 259 254 244 241 248 252 254 254 251 243 239 239 231 224 218 225 228 216 206 203 195 192 196 198 202 205 208 209 210 211 199 196 212 208 194 176 192 182 171 185 174 200 204 204 208 209 216 221 220 215 204 205 203 203 177 169 178 185 175 180 187 192 190 183 189 197 189 188 196 207
303 298 292 288 284 281 279 277 275 274 272 270 269 264 257 253 253 249 242 245 250 248 251 253 249 241 237 231 227 226 225 220 224 221 205 197 191 191 196 200 202 206 207 205 206 208 212 215 213 209 215 220 231 234 229 215 194 196 207 196 206 209 222 225 214 210 207 203 205 195 178 187 188 192 191 195 181 167 181 190 194 184 186 202 208
299 292 289 286 284 281 276 267 260 260 262 265 265 263 259 256 251 251 249 244 245 249 249 248 244 244 238 223 227 230 231 231 227 224 217 200 188 192 192 195 197 201 204 205 208 210 216 218 223 220 214 216 223 228 233 233 237 227 237 246 210 200 217 222 224 217 206 208 207 202 200 191 194 193 196 184 184 183 186 188 190 180 190 194 209
300 295 293 291 288 284 276 266 261 261 261 262 260 255 256 250 251 252 250 247 246 247 248 249 247 242 220 202 219 224 230 250 292 297 237 207 192 189 190 190 192 197 204 208 211 212 214 217 221 224 222 221 221 224 228 228 231 238 238 247 272 265 226 213 229 225 213 212 208 209 206 201 192 188 191 185 187 184 187 188 194 192 190 200 207
305 304 303 304 301 297 294 286 274 259 246 243 248 250 250 249 247 248 247 247 251 249 245 246 246 245 229 208 218 227 226 235 237 248 311 266 205 188 191 189 187 194 201 207 211 212 215 218 221 219 220 213 215 217 216 219 215 225 239 253 283 313 302 281 223 204 271 230 211 217 212 205 193 193 192 191 179 186 185 193 198 200 201 206 209
309 309 309 310 309 304 300 293 286 281 256 234 237 242 248 250 246 246 247 242 244 249 249 245 242 238 225 208 205 195 198 138 128 181 229 259 244 198 193 187 188 194 199 204 213 216 216 219 216 216 216 211 203 201 199 206 211 212 219 229 235 244 250 277 287 274 238 239 252 228 218 214 208 196 187 169 178 191 187 197 192 198 201 211 204
315 316 313 310 308 305 301 295 288 286 275 233 232 241 245 252 247 245 247 244 241 243 246 247 235 223 207 201 203 214 208 219 209 191 196 200 248 252 199 188 196 201 203 207 212 216 220 221 216 214 211 210 197 190 192 201 205 208 209 213 217 214 206 249 259 256 251 235 240 258 266 232 221 200 180 179 188 192 191 191 190 196 203 190 194
319 318 316 313 310 307 306 303 290 283 276 253 230 233 236 243 248 246 249 248 247 247 249 249 233 206 185 192 208 212 213 200 211 210 211 203 202 202 225 207 203 204 209 210 212 214 219 219 217 214 212 209 201 191 194 194 199 208 213 211 205 210 212 213 224 240 243 227 232 240 246 315 324 233 180 186 186 187 180 184 183 194 189 197 212
325 324 319 315 312 311 314 310 302 292 282 279 262 243 239 237 240 242 248 251 250 247 217 216 225 197 185 188 208 217 218 202 212 213 207 208 208 221 214 217 215 213 213 213 213 216 218 219 217 216 215 216 199 190 196 185 193 199 208 212 216 218 220 221 223 228 229 235 237 240 242 248 9 324 207 180 184 176 172 176 196 186 185 202 213
329 326 323 324 320 316 323 333 317 305 302 299 282 262 235 233 246 89 301 270 278 278 235 251 243 216 196 194 202 210 211 199 201 213 207 203 197 207 217 216 218 220 222 218 216 217 217 213 214 214 216 216 196 187 193 188 197 199 202 206 210 216 221 218 226 230 227 226 230 232 236 234 224 164 309 215 178 172 175 193 192 176 193 200 207
330 328 327 327 320 322 331 333 344 331 309 277 276 266 239 220 183 184 190 202 200 196 193 235 272 276 254 231 204 208 216 204 181 247 246 216 203 218 216 212 215 221 223 225 220 221 218 212 210 214 216 215 194 188 191 193 202 202 202 202 210 216 217 209 215 225 227 229 232 235 236 237 228 178 227 262 220 186 189 193 176 183 195 202 205
327 328 328 327 329 333 336 335 340 348 339 317 300 290 282 208 202 205 182 186 184 180 164 155 189 208 289 303 328 49 70 97 122 128 135 3 298 291 246 218 226 224 222 224 224 217 223 224 210 212 218 218 197 191 191 196 203 208 205 208 210 217 213 213 215 215 221 222 228 222 230 238 242 184 191 231 237 228 207 195 189 189 195 199 200
331 333 333 333 334 336 335 336 341 350 350 330 312 306 286 257 225 226 210 214 214 190 195 201 200 200 198 207 244 242 242 171 160 146 156 164 189 201 275 269 244 226 219 222 221 221 214 217 224 202 210 219 205 198 199 201 207 210 209 213 214 216 207 215 218 216 219 219 211 213 218 226 235 229 199 205 214 228 235 219 206 200 196 198 200
336 336 335 335 338 341 340 335 342 342 347 338 346 334 326 312 287 273 256 217 212 190 187 204 209 197 183 192 187 172 177 181 174 155 163 177 183 188 177 239 264 283 268 224 216 221 216 209 214 199 200 209 205 205 210 206 211 217 220 219 220 218 213 216 213 209 218 222 220 210 199 204 222 234 225 212 202 200 230 231 222 214 209 205 202
342 341 338 339 344 341 340 339 343 342 348 348 357 1 341 337 6 346 322 292 242 236 203 176 256 264 179 188 183 176 176 178 175 173 172 174 178 175 195 210 233 228 273 275 244 222 220 221 213 194 193 201 201 203 205 209 209 224 231 226 226 223 217 216 212 209 211 219 221 219 206 195 198 211 229 238 225 209 211 223 227 225 221 217 214
345 346 345 345 347 350 343 342 342 345 354 352 2 2 359 348 345 358 356 340 338 266 255 184 190 202 223 219 216 209 199 193 195 194 185 182 182 189 199 209 213 206 209 272 271 252 229 212 349 277 202 201 205 205 205 203 207 214 222 235 238 232 227 230 219 215 210 217 217 218 212 202 193 195 210 231 238 226 217 219 225 227 229 229 224
349 347 348 346 350 353 346 352 345 350 357 355 5 4 3 8 22 8 354 350 347 341 337 320 257 230 231 265 274 279 227 208 206 212 202 183 189 198 208 212 216 210 200 237 276 310 309 152 225 115 196 241 221 211 209 211 213 214 214 220 225 221 222 228 228 216 222 223 224 218 214 207 196 200 214 241 257 250 234 220 221 225 229 232 233
349 354 351 350 356 352 346 355 348 350 359 360 13 12 4 22 20 12 12 9 2 359 350 346 344 347 320 322 306 287 233 229 233 217 205 193 190 218 228 243 248 237 210 223 263 268 315 24 41 56 151 191 198 209 242 237 235 242 246 239 232 231 231 230 237 236 239 234 222 219 217 212 204 151 166 217 265 253 251 243 228 227 223 226 230
357 357 355 355 357 353 352 357 347 353 360 2 18 21 20 32 29 24 19 11 6 2 1 1 356 352 348 337 327 302 279 239 232 249 209 179 183 184 203 237 238 259 257 257 272 272 218 294 268 230 217 199 192 203 222 231 216 213 221 224 221 233 249 250 240 250 252 246 253 273 269 247 224 197 208 213 223 229 225 227 229 221 218 219 225
11 5 1 359 355 353 354 357 351 355 1 1 11 22 30 32 49 36 27 20 12 12 13 9 359 345 335 326 319 318 278 255 286 337 262 194 183 173 184 195 207 204 203 217 232 225 186 205 221 220 216 186 206 193 224 215 215 211 223 215 219 222 215 221 233 238 252 281 258 240 262 258 236 225 223 226 229 231 229 235 259 257 236 233 233
16 11 6 3 358 356 360 1 360 1 3 2 13 36 32 49 38 54 38 25 23 17 16 14 4 352 330 326 331 325 326 343 18 341 323 351 10 192 176 191 206 208 212 218 221 182 56 308 265 262 267 264 238 218 217 220 212 209 209 207 220 215 202 194 213 221 225 234 234 224 236 246 261 260 244 243 242 252 222 162 210 214 211 209 241
17 12 2 356 360 3 12 5 2 7 9 10 4 24 46 62 77 54 37 28 32 33 33 23 359 357 356 350 3 8 336 316 306 316 320 327 337 319 287 275 216 200 205 190 179 182 182 181 219 259 278 273 264 254 239 220 226 225 224 206 208 213 205 199 216 226 219 220 229 206 222 238 244 244 251 254 294 295 277 265 246 262 288 208 218
17 12 2 353 353 9 21 12 10 12 15 13 13 6 4 48 78 81 78 55 38 28 24 23 17 18 22 4 356 9 344 332 332 326 353 352 341 345 344 273 263 272 90 126 171 190 162 169 220 226 223 247 258 245 230 225 221 228 233 228 217 212 201 205 211 223 229 219 215 208 211 236 249 246 243 249 251 256 269 269 256 224 213 207 216
20 13 5 348 344 13 22 22 14 16 17 20 14 9 10 7 8 56 70 57 42 32 27 21 16 12 15 18 12 355 359 354 344 0 19 12 358 345 349 23 124 160 218 210 183 188 162 179 213 237 234 234 235 232 225 230 223 218 219 225 228 219 214 218 215 217 227 230 231 220 211 218 241 249 244 234 233 244 250 261 256 248 235 212 205
25 20 7 348 343 360 12 26 24 18 21 17 10 8 11 11 10 360 6 56 61 46 31 23 17 10 8 9 15 17 7 357 354 12 25 23 3 353 356 29 65 104 112 187 231 209 207 210 213 219 230 243 242 235 225 224 226 227 220 222 227 226 223 225 211 226 229 229 226 224 216 219 221 231 234 230 227 237 238 245 248 244 232 219 201
32 34 6 355 3 358 6 20 16 19 13 19 16 13 10 6 1 347 351 350 4 31 39 28 18 11 5 10 14 12 8 6 9 17 23 27 26 23 26 49 62 60 48 333 251 248 277 281 283 326 347 308 302 305 294 271 240 231 231 230 234 232 229 218 218 224 227 231 238 241 229 227 219 224 227 226 221 226 231 239 238 227 222 217 219
26 29 24 5 11 9 9 10 9 13 4 7 8 15 10 8 355 356 4 8 2 6 4 8 10 11 8 10 12 11 9 7 16 24 28 33 33 43 50 41 36 35 33 24 3 350 342 356 349 332 291 291 294 291 307 320 325 317 309 294 268 246 235 225 225 230 228 231 234 236 232 232 233 233 233 230 224 219 220 225 229 224 227 216 218
31 28 25 10 15 15 14 8 8 10 8 5 14 21 7 8 3 359 10 17 4 356 12 18 4 354 4 12 14 14 12 11 20 30 34 37 36 44 53 37 43 40 31 21 19 15 19 20 14 15 13 14 9 12 8 13 13 15 11 8 11 10 4 354 339 312 291 269 255 245 238 233 234 233 235 238 238 235 229 222 224 223 222 219 211
27 39 22 6 10 20 15 12 4 360 12 360 10 15 13 15 7 3 10 15 15 10 13 9 3 5 11 12 9 10 14 13 24 35 36 38 42 49 51 48 51 47 39 28 19 19 23 20 12 11 13 14 16 9 2 2 0 359 4 7 4 16 4 7 9 26 16 9 357 343 314 275 256 236 228 231 230 233 239 241 236 227 222 224 215
67 41 36 352 337 13 16 25 7 5 21 10 11 5 14 16 17 7 9 15 12 14 13 23 17 15 10 2 355 7 6 9 24 31 26 28 34 42 42 39 38 45 47 40 29 29 32 26 20 18 12 16 19 15 9 1 354 358 5 7 2 358 347 360 17 24 16 15 1 354 353 353 340 311 281 248 231 226 231 232 236 237 230 225 219
356 82 49 10 339 351 3 14 28 12 26 28 16 360 9 12 19 11 7 13 15 17 18 25 24 18 18 4 356 359 12 23 26 24 21 26 29 32 34 35 36 36 36 36 32 36 36 32 22 19 13 10 18 22 21 13 5 2 0 359 4 4 8 10 9 10 5 1 352 355 358 354 349 345 340 317 292 256 239 240 247 248 235 231 231
341 349 46 46 358 359 4 351 22 14 5 27 29 4 8 19 15 16 8 9 10 18 20 23 39 23 18 16 10 8 26 26 30 26 24 26 28 26 27 26 28 28 28 29 30 25 29 39 34 25 11 355 0 21 32 24 12 358 355 355 1 4 4 5 6 2 359 350 349 353 356 350 345 342 344 353 344 330 308 272 252 237 231 229 226
340 342 336 4 66 357 14 14 349 21 2 9 35 12 358 20 26 18 13 2 7 13 23 20 37 45 23 24 9 15 30 29 23 28 31 32 29 29 29 27 23 23 23 26 26 25 21 28 35 29 16 358 346 360 24 31 18 5 5 357 354 356 359 360 2 358 354 350 348 349 347 342 341 347 347 337 334 328 319 307 296 279 272 266 256
327 340 342 343 343 30 352 48 352 359 26 352 2 24 357 12 23 28 13 8 359 11 19 22 21 52 44 33 16 22 29 28 25 25 24 26 28 28 30 29 29 23 18 19 20 17 14 20 27 27 21 5 350 353 12 26 21 13 9 1 358 350 360 358 356 352 352 343 342 340 336 335 337 338 335 337 336 331 324 321 309 294 275 257 249
313 328 335 2 348 353 355 350 43 357 345 16 348 11 351 7 25 20 21 6 353 357 26 22 23 17 38 43 16 13 35 28 27 27 25 23 21 24 30 30 28 28 22 18 15 14 10 17 21 22 19 9 3 3 13 17 15 8 4 358 351 356 356 353 352 350 346 343 335 331 325 325 333 339 341 341 339 334 325 316 313 306 299 287 276
294 335 343 348 355 339 355 353 7 8 342 312 14 20 337 4 24 20 22 10 352 353 23 22 26 17 18 25 23 15 29 37 28 27 28 27 23 20 19 21 35 35 29 22 18 13 12 12 15 13 11 8 2 5 18 20 12 7 0 357 356 358 358 354 349 341 336 328 324 325 327 324 324 327 334 339 340 337 330 325 317 306 300 293 282
315 342 336 338 346 342 337 349 350 355 335 332 357 17 1 1 13 26 9 15 355 348 11 21 29 23 21 20 22 17 17 26 33 30 25 30 29 29 20 4 8 36 37 29 24 22 19 14 14 14 9 7 359 2 11 24 20 10 2 3 4 1 355 345 336 326 318 315 326 333 333 333 330 332 331 334 335 333 330 328 321 313 305 289 275
323 334 327 331 335 344 326 340 332 358 331 344 346 3 358 3 2 27 15 7 356 353 342 14 20 30 30 20 18 23 17 16 22 27 28 30 32 34 30 8 357 20 34 27 24 32 32 21 19 21 14 11 5 8 8 9 7 5 360 6 8 1 347 334 327 322 321 328 330 324 319 317 317 316 318 319 323 324 323 319 321 317 309 299 283
299 306 307 321 325 323 325 317 329 347 319 333 352 351 351 12 344 3 26 7 345 350 347 4 12 24 28 22 15 19 17 11 18 20 24 30 32 34 30 16 2 23 27 36 30 27 39 27 17 23 22 17 6 6 6 4 5 360 357 355 1 351 347 339 328 321 324 325 319 310 310 310 311 319 331 333 331 326 327 320 321 310 307 293 289
293 310 307 314 309 321 319 316 325 312 319 329 346 339 356 358 346 345 2 2 351 354 349 352 8 16 31 36 19 12 12 6 8 22 25 23 28 34 30 21 356 8 32 32 45 46 50 40 16 14 28 26 15 6 4 360 4 359 354 354 356 346 339 339 329 323 324 313 305 309 303 305 304 319 325 326 322 324 328 328 326 324 318 310 301
296 297 306 305 305 300 305 319 315 302 316 328 323 333 343 337 333 344 346 359 349 345 354 344 342 360 7 55 24 14 7 8 7 359 20 19 19 23 18 13 10 351 11 20 18 38 62 70 47 17 32 38 25 12 9 6 1 356 353 353 346 343 342 344 341 335 329 321 318 312 312 302 312 328 325 325 320 319 316 316 318 320 318 314 311
289 291 295 308 291 282 284 290 287 297 310 318 324 324 326 328 323 332 338 343 338 344 350 334 329 347 359 22 39 12 16 360 5 355 4 16 7 9 14 3 20 349 355 8 4 10 19 47 43 20 49 55 31 26 12 8 1 353 349 347 344 345 344 344 343 342 343 331 324 315 313 328 345 344 348 348 344 332 323 315 315 313 314 319 319
290 289 286 280 292 297 289 279 282 304 308 300 304 314 301 303 316 319 336 337 326 329 346 327 323 349 2 4 15 16 21 359 8 349 345 4 9 359 8 355 10 354 344 1 355 2 3 14 30 17 40 66 39 25 17 11 4 349 341 344 348 347 345 347 345 339 338 339 323 319 339 356 355 358 1 350 342 336 325 325 327 323 315 312 313